Regional Weather Roundup
Issued by NWS

Home | Current Version | Previous Version | Graphics & Text | Print | Product List | Glossary Off
Versions: 1 2 3 4 5 6 7 8 9 10 11 12 13 14 15 16 17 18 19 20 21 22 23 24 25 26 27

000
ASUS45 KBOU 281510
RWRCO

WEATHER ROUNDUP FOR COLORADO
NATIONAL WEATHER SERVICE DENVER/BOULDER CO
900 AM MDT WED SEP 28 2016

NOTE: "FAIR" INDICATES FEW OR NO CLOUDS BELOW 12000 FEET WITH NO
SIGNIFICANT WEATHER AND/OR OBSTRUCTIONS TO VISIBILITY.

COZ001>005-013-030-031-281600-
...NORTHWEST COLORADO...

CITY           SKY/WX    TMP DP  RH WIND       PRES   REMARKS
CRAIG          FAIR      46  38  73 CALM      30.37R
HAYDEN         FAIR      50  30  46 E16       30.36S
MEEKER         FAIR      49  39  68 CALM      30.36R
MOUNT WERNER   NOT AVBL
STEAMBOAT SPGS FAIR      45  35  67 CALM      30.40R
WALDEN           N/A     41  27  56 CALM      30.50S
$$

COZ006>008-011-281600-
...WEST CENTRAL VALLEYS...

CITY           SKY/WX    TMP DP  RH WIND       PRES   REMARKS
GRAND JUNCTION FAIR      61  39  44 SE14      30.27R
MONTROSE       FAIR      54  38  54 SE6       30.34R
EAGLE          SUNNY     46  30  53 CALM      30.45R
RIFLE          FAIR      52  42  69 CALM      30.33R
DELTA          FAIR      56  37  48 CALM      30.32R
NUCLA          FAIR      55  36  47 E3        30.36R
$$

COZ017>023-064>068-281600-
...SOUTHWEST COLORADO...

CITY           SKY/WX    TMP DP  RH WIND       PRES   REMARKS
DURANGO        FAIR      49  35  58 E5        30.38R
CORTEZ         FAIR      53  39  59 CALM      30.32R
PAGOSA SPRINGS FAIR      52  32  46 CALM      30.44R
TELLURIDE      FAIR      50  35  54 SE5       30.51S
WOLF CREEK PAS FAIR      45  27  49 NE6       30.71R
$$

COZ009-010-012-014-032>034-037-058>063-281600-
...CENTRAL COLORADO...

CITY           SKY/WX    TMP DP  RH WIND       PRES   REMARKS
ASPEN          FAIR      50  33  52 CALM      30.43R
BUENA VISTA    FAIR      53  27  36 NW10      30.49S
COPPER MTN     FAIR      54  23  30 S8        30.69S
BERTHOUD PASS  FAIR      41  28  60 E20       30.73R
COTTONWOOD PAS FAIR      55  23  28 CALM      30.59R
GUNNISON       FAIR      42  29  59 CALM      30.50R
KREMMLING      FAIR      41  25  52 CALM      30.50S
LEADVILLE      FAIR      46  24  42 CALM      30.57R
MONARCH PASS   FAIR      45  27  49 NE16      30.79R
SALIDA         FAIR      51  29  43 N5        30.55S
SUNLIGHT       FAIR      50  32  50 E6        30.63R
WILKERSON PASS FAIR      48  19  32 CALM      30.70R
$$

COZ069>075-281600-
...SAN LUIS VALLEY/SANGRE DE CRISTO MOUNTAINS...

CITY           SKY/WX    TMP DP  RH WIND       PRES   REMARKS
ALAMOSA        FAIR      48  29  47 W5        30.46R
LA VETA PASS   FAIR      54  30  40 MISG      30.59R
SAGUACHE       NOT AVBL
$$

COZ035-036-038>040-281600-
...NORTHERN COLORADO FRONT RANGE...

CITY           SKY/WX    TMP DP  RH WIND       PRES   REMARKS
DENVER INTL AP FAIR      63  30  28 W9        30.34R
DMNS CITY PARK   N/A     61  33  35 S3        30.35R
AURORA         SUNNY     62  30  30 SW7       30.36R
FRONT RANGE AP SUNNY     64  30  27 SW9       30.35R
ERIE MUNI ARPT FAIR      61  30  30 CALM      30.34R
BOULDER MUN AP FAIR      63  32  31 CALM      30.34R
CENTENNIAL     FAIR      63  29  27 W5        30.37R
BROOMFIELD     SUNNY     64  30  27 CALM      30.37R
FORT COLLINS   FAIR      59  36  41 N7        30.34R
LONGMONT       FAIR      65  36  33 CALM      30.35R
$$

COZ041-046-047-076>085-087-088-281600-
...PIKES PEAK/PALMER DIVIDE AND SOUTHERN FOOTHILLS...

CITY           SKY/WX    TMP DP  RH WIND       PRES   REMARKS
COLO. SPRINGS  FAIR      69  30  23 N8        30.38R
A. F. ACADEMY  FAIR      62  28  28 N5        30.39R
SCHRIEVER AFB  NOT AVBL
ELLICOTT       NOT AVBL
FALCON         FAIR      67  28  23 N7        30.42R
FORT CARSON    FAIR      66  27  22 NW14G20   30.34R
LIMON          FAIR      65  29  25 NW5       30.34R
MONUMENT HILL  FAIR      61  28  29 W7        30.44R
TRINIDAD       FAIR      62  33  33 W9        30.34R
$$

COZ042>045-048>051-090-091-281600-
...NORTHEAST COLORADO...

CITY           SKY/WX    TMP DP  RH WIND       PRES   REMARKS
GREELEY ARPT   FAIR      55  37  50 CALM      30.34R
AKRON          FAIR      61  34  36 W7        30.32R
BURLINGTON     FAIR      63  36  36 NW6       30.28R
WRAY           FAIR      64  37  36 W5        30.26R
STERLING       FAIR      52  37  58 CALM      30.29R
HOLYOKE        FAIR      68  41  37 NW7       30.27R
FORT MORGAN    FAIR      55  36  48 SW6       30.32R
$$

COZ086-089-092>099-281600-
...SOUTHEAST COLORADO...

CITY           SKY/WX    TMP DP  RH WIND       PRES   REMARKS
PUEBLO         FAIR      67  31  26 W6        30.29R
LA JUNTA       FAIR      63  35  35 N5        30.27R
LAMAR          FAIR      61  38  42 NW5       30.23R
SPRINGFIELD    NOT AVBL
$$




USA.gov is the U.S. government's official web portal to all federal, state and local government web resources and services.